DELTA 1 R/B, 1729

Orbit data source: Space-Track

DELTA 1 R/B, 1729 is space debris in LEO originally from a launch on Sat, 06 Nov 1965 UTC launched from the Air Force Eastern Test Range (AFETR). Debris objects in space refer to the collection of defunct objects orbiting the Earth. Examples of debris include non-operational satellites, rocket bodies, and fragments generated from explosions, collisions, or faulty payload assembly.

Loading next visibility...
Identifier
1729, 1965-089B
Orbit
LEO
Country
Flag of USUS
Related business
Manufacturer
ABL
Mission
Spacecraft
Bus & Motor
ALTAIR, Unknown motor
Mass
~60 kg wet, ~60 kg dry
Launch date (UTC)
1965-11-06 (60 years ago)
Launch vehicle
Unknown
Launch site
Air Force Eastern Test Range (AFETR)
Object type
Payload
Rocket body
Debris
Shape & HBR
Cyl, 0.8 m
Radar Cross Section
0.687 m², Medium (>0.1 m² and < 1m²)

Expand to show TLE details & history
Last TLE update: 15 hours ago

TLE from 15 hours ago
0 DELTA 1 R/B
1 01729U 65089B   25259.09100318 -.00000037  00000-0  23295-3 0  9997
2 01729  59.3889 269.7486 0713801  11.8084  21.9092 11.97562571617592
Epoch: 2025-09-16T02:11Z
TLE epoch observation values (Epoch: 2025-09-16T02:11:02.674Z)
Latitude
31.31114°
Longitude
-97.31904°
Altitude
1,166.144 km
Speed
7.508 km/s
True Right ascension
19h 22m 54s
True Declination
31° 10' 01"
Sunlit
Object was in daylight at epoch
Visualization orbit readout
Latitude
Unknown
Longitude
Unknown
Altitude
Unknown
Speed
Unknown
Apparent Right ascension
Unknown
Apparent Declination
Unknown
Sunlit
N/A
Visualization observer readout
Local Sidereal Time
10:12:56
Azimuth
Unknown
Elevation
Unknown
Doppler factor
Unknown
Orbital elements
Apogee altitude
2,267.175 km
Perigee altitude
1,115.197 km
Semi-major axis
8,069.323 km
Eccentricity
0.07138
Inclination
59.3889°
RAAN
269.7486°
Arg. of periapsis
11.8084°
True anomaly
25.23376°
Mean anomaly
21.9092°
Eccentric anomaly
23.5428°
Mean motion
2.99425 °/min
Orbital period
120.23 mins
BSTAR
0.00023295
Loading maneuver chart data...
Computing Atmospheric mass density...
Loading historical data...
Loading historical data...
Loading historical data...
Loading historical data...
Loading historical data...
Loading historical data...
Loading historical data...

Documentation

Showing up to 5 results
|